Manhattan, KS

6:56 AM CDT on March 27, 2017 (GMT -0500)
Manhattan Regional

Weather History for KMHK - February, 2013

Change the Weather History Date:

Thursday, February 21, 2013

  Actual Average Record
Temperature  
Mean Temperature 24 °F 35 °F  
Max Temperature 26 °F 47 °F 71 °F (2017)
Min Temperature 21 °F 22 °F 10 °F (2006)
Degree Days  
Heating Degree Days 41 30  
Month to date heating degree days 621 691  
Since 1 July heating degree days 3551 3957  
Cooling Degree Days 0 0  
Month to date cooling degree days 0 0  
Year to date cooling degree days 0 0  
Moisture  
Dew Point 19 °F    
Average Humidity 71    
Maximum Humidity 92    
Minimum Humidity 50    
Precipitation  
Precipitation 0.25 in 0.04 in 0.25 in (2013)
Month to date precipitation 0.89 0.79  
Year to date precipitation 1.58 1.44  
Sea Level Pressure  
Sea Level Pressure 29.86 in    
Wind  
Wind Speed 13 mph (NE)    
Max Wind Speed 23 mph    
Max Gust Speed 29 mph    
Visibility 3 miles    
Events Fog , Rain , Snow    
T = Trace of Precipitation, MM = Missing Value Source: NWS Daily Summary

Daily Weather History Graph

Daily Weather History Graph

Search for Another Location

Airport or City:

Trip Planner

Search our weather history database for the weather conditions in past years. The results will help you decide how hot, cold, wet, or windy it might be!

Date:

Astronomy

Feb. 21, 2013 Rise Set
Actual Time 7:10 AM CST 6:10 PM CST
Civil Twilight 6:43 AM CST 6:38 PM CST
Nautical Twilight 6:11 AM CST 7:09 PM CST
Astronomical Twilight 5:41 AM CST 7:40 PM CST
Moon 2:27 PM CST (2/21) 4:14 AM CST (2/21)
Length of Visible Light 11h 54m
Length of Day
11h 00m
Waxing Gibbous, 84% of the Moon is Illuminated
Feb 21
Waxing Gibbous
Feb 25
Full
Mar 4
Last Quarter
Mar 11
New
Mar 19
First Quarter

Hourly Weather History & Observations

Time (CST) Temp. Windchill Dew Point Humidity Pressure Visibility Wind Dir Wind Speed Gust Speed Precip Events Conditions
12:52 AM 26.6 °F 14.3 °F 12.2 °F 55% 30.09 in 10.0 mi East 16.1 mph - N/A   Overcast
1:43 AM 26.6 °F 14.7 °F 12.2 °F 55% 30.07 in 10.0 mi East 15.0 mph 23.0 mph N/A   Overcast
1:52 AM 26.1 °F 13.1 °F 12.9 °F 58% 30.10 in 10.0 mi ENE 17.3 mph - N/A   Overcast
2:52 AM 25.0 °F 10.9 °F 12.9 °F 60% 30.09 in 10.0 mi East 19.6 mph 24.2 mph N/A   Overcast
3:04 AM 24.8 °F 11.5 °F 14.0 °F 64% 30.02 in 10.0 mi ENE 17.3 mph 27.6 mph 0.00 in   Overcast
3:50 AM 24.8 °F 11.5 °F 15.8 °F 69% 30.00 in 6.0 mi East 17.3 mph - 0.00 in   Overcast
3:52 AM 24.1 °F 10.6 °F 16.0 °F 71% 30.04 in 6.0 mi East 17.3 mph - 0.00 in Snow Light Snow
4:16 AM 24.8 °F 11.5 °F 15.8 °F 69% 29.98 in 9.0 mi ENE 17.3 mph - 0.00 in   Overcast
4:52 AM 24.1 °F 12.5 °F 16.0 °F 71% 30.04 in 3.0 mi East 12.7 mph - 0.00 in Snow Light Snow
5:03 AM 23.0 °F 10.1 °F 15.8 °F 74% 29.99 in 2.0 mi East 15.0 mph - 0.00 in Snow Light Snow
5:17 AM 23.0 °F 11.1 °F 17.6 °F 80% 29.98 in 1.5 mi ENE 12.7 mph - 0.00 in Snow Light Snow
5:49 AM 21.2 °F 8.3 °F 17.6 °F 86% 29.97 in 1.0 mi ENE 13.8 mph - 0.00 in Snow Light Snow
5:52 AM 21.9 °F 9.2 °F 18.0 °F 85% 30.01 in 1.0 mi ENE 13.8 mph - 0.00 in Snow Light Snow
5:58 AM 21.2 °F 7.8 °F 17.6 °F 86% 29.97 in 0.8 mi ENE 15.0 mph - 0.01 in Snow Light Snow
6:30 AM 21.2 °F 6.0 °F 17.6 °F 86% 29.95 in 0.5 mi ENE 19.6 mph 23.0 mph 0.02 in Fog , Snow Snow
6:52 AM 21.0 °F 5.7 °F 18.0 °F 88% 29.96 in 0.5 mi ENE 19.6 mph 24.2 mph 0.04 in Fog , Snow Snow
7:12 AM 21.2 °F 8.3 °F 17.6 °F 86% 29.96 in 0.2 mi ENE 13.8 mph - 0.02 in Fog , Snow Heavy Snow
7:26 AM 21.2 °F 9.5 °F 17.6 °F 86% 29.97 in 0.2 mi ENE 11.5 mph - 0.04 in Fog , Snow Heavy Snow
7:52 AM 21.0 °F 7.1 °F 18.0 °F 88% 29.98 in 0.2 mi ENE 16.1 mph - 0.08 in Fog , Snow Heavy Snow
8:12 AM 21.2 °F 6.8 °F 17.6 °F 86% 29.93 in 0.2 mi ENE 17.3 mph - 0.01 in Fog , Snow Heavy Snow
8:52 AM 21.0 °F 5.7 °F 18.0 °F 88% 29.94 in 0.2 mi ENE 19.6 mph 25.3 mph 0.02 in Fog , Snow Snow
9:07 AM 21.2 °F 6.8 °F 17.6 °F 86% 29.88 in 0.5 mi ENE 17.3 mph - 0.00 in Fog , Snow Snow
9:16 AM 21.2 °F 6.8 °F 17.6 °F 86% 29.87 in 0.2 mi ENE 17.3 mph 26.5 mph 0.00 in Fog , Snow Heavy Snow
9:23 AM 21.2 °F 6.0 °F 17.6 °F 86% 29.88 in 0.2 mi ENE 19.6 mph 25.3 mph 0.00 in Fog , Snow Heavy Snow
9:50 AM 21.2 °F 6.8 °F 17.6 °F 86% 29.86 in 0.5 mi ENE 17.3 mph 25.3 mph 0.01 in Fog , Snow Snow
9:52 AM 21.0 °F 6.2 °F 18.0 °F 88% 29.90 in 0.5 mi ENE 18.4 mph 25.3 mph 0.01 in Fog , Snow Snow
10:10 AM 21.2 °F 6.8 °F 17.6 °F 86% 29.86 in 1.0 mi ENE 17.3 mph 24.2 mph 0.00 in Snow Light Snow
10:25 AM 21.2 °F 7.3 °F 17.6 °F 86% 29.86 in 1.0 mi ENE 16.1 mph 23.0 mph 0.01 in Snow Light Snow
10:30 AM 21.2 °F 6.8 °F 17.6 °F 86% 29.85 in 0.8 mi ENE 17.3 mph 24.2 mph 0.01 in Snow Light Snow
10:52 AM 21.9 °F 7.8 °F 18.0 °F 85% 29.90 in 0.5 mi ENE 17.3 mph 24.2 mph 0.01 in Fog , Snow Light Snow
11:52 AM 21.2 °F 8.9 °F 19.4 °F 93% 29.85 in 0.8 mi NE 12.7 mph - N/A Snow Light Snow
12:02 PM 21.2 °F 8.9 °F 19.4 °F 93% 29.85 in 1.0 mi NE 12.7 mph - N/A Snow Light Snow
12:14 PM 21.2 °F 8.3 °F 19.4 °F 93% 29.84 in 0.8 mi NE 13.8 mph - 0.00 in Snow Light Snow
12:22 PM 21.2 °F 9.5 °F 19.4 °F 93% 29.83 in 0.2 mi NE 11.5 mph - 0.00 in Fog , Snow Light Snow
12:37 PM 21.2 °F 9.5 °F 19.4 °F 93% 29.83 in 0.5 mi ENE 11.5 mph - 0.01 in Fog , Snow Light Snow
12:40 PM 21.2 °F 10.1 °F 19.4 °F 93% 29.83 in 1.0 mi ENE 10.4 mph - 0.01 in Snow Light Snow
12:45 PM 21.2 °F 9.5 °F 19.4 °F 93% 29.82 in 2.5 mi ENE 11.5 mph - 0.01 in Snow Light Snow
12:47 PM 23.0 °F 11.7 °F 19.4 °F 86% 29.82 in 4.0 mi ENE 11.5 mph - 0.01 in Snow Light Snow
12:52 PM 23.0 °F 9.6 °F 19.0 °F 85% 29.85 in 4.0 mi ENE 16.1 mph 20.7 mph 0.01 in   Overcast
1:01 PM 23.0 °F 9.6 °F 19.4 °F 86% 29.80 in 1.8 mi ENE 16.1 mph - 0.00 in Snow Light Snow
1:11 PM 23.0 °F 8.7 °F 19.4 °F 86% 29.80 in 2.5 mi ENE 18.4 mph 21.9 mph 0.00 in Snow Light Snow
1:27 PM 23.0 °F 9.6 °F 19.4 °F 86% 29.81 in 1.5 mi ENE 16.1 mph - 0.00 in Snow Light Snow
1:52 PM 24.1 °F 13.1 °F 21.0 °F 88% 29.84 in 1.2 mi ENE 11.5 mph - 0.00 in   Overcast
1:58 PM 24.8 °F 11.5 °F 21.2 °F 86% 29.79 in 1.2 mi ENE 17.3 mph - 0.00 in Rain Light Freezing Rain
2:34 PM 24.8 °F 14.0 °F 21.2 °F 86% 29.78 in 0.8 mi NE 11.5 mph - 0.01 in Snow Light Snow
2:49 PM 24.8 °F 14.0 °F 21.2 °F 86% 29.77 in 1.0 mi NE 11.5 mph - 0.01 in Snow Light Snow
2:52 PM 24.1 °F 13.7 °F 21.0 °F 88% 29.81 in 1.5 mi ENE 10.4 mph - 0.01 in Snow Light Snow
3:09 PM 24.8 °F 14.6 °F 21.2 °F 86% 29.78 in 0.5 mi ENE 10.4 mph - 0.00 in Fog , Snow Snow
3:17 PM 24.8 °F 15.3 °F 21.2 °F 86% 29.78 in 0.2 mi ENE 9.2 mph - 0.01 in Fog , Snow Snow
3:27 PM 24.8 °F 15.3 °F 21.2 °F 86% 29.78 in 0.5 mi NE 9.2 mph - 0.01 in Fog , Snow Light Snow
3:45 PM 24.8 °F 16.9 °F 21.2 °F 86% 29.78 in 0.8 mi NE 6.9 mph - 0.01 in Snow Light Snow
3:48 PM 24.8 °F 16.1 °F 21.2 °F 86% 29.78 in 1.2 mi NE 8.1 mph - 0.01 in Snow Light Snow
3:52 PM 24.1 °F 14.4 °F 21.9 °F 91% 29.82 in 1.2 mi NE 9.2 mph - 0.01 in Snow Light Snow
3:57 PM 24.8 °F 14.6 °F 21.2 °F 86% 29.77 in 1.5 mi NE 10.4 mph - 0.00 in Snow Light Snow
4:02 PM 24.8 °F 14.6 °F 21.2 °F 86% 29.77 in 3.0 mi NE 10.4 mph - 0.00 in Snow Light Snow
4:33 PM 24.8 °F 13.4 °F 21.2 °F 86% 29.75 in 6.0 mi NE 12.7 mph - 0.01 in   Overcast
4:52 PM 25.0 °F 13.6 °F 21.0 °F 85% 29.80 in 6.0 mi NE 12.7 mph - 0.01 in   Overcast
5:05 PM 24.8 °F 14.6 °F 21.2 °F 86% 29.76 in 5.0 mi ENE 10.4 mph - 0.00 in Snow Light Snow
5:26 PM 24.8 °F 14.6 °F 21.2 °F 86% 29.76 in 1.8 mi ENE 10.4 mph - 0.00 in Snow Light Snow
5:34 PM 24.8 °F 14.6 °F 21.2 °F 86% 29.76 in 3.0 mi NE 10.4 mph - 0.00 in Snow Light Snow
5:38 PM 24.8 °F 13.4 °F 21.2 °F 86% 29.76 in 4.0 mi NE 12.7 mph - 0.00 in Snow Light Snow
5:52 PM 25.0 °F 13.6 °F 21.0 °F 85% 29.80 in 1.8 mi NE 12.7 mph - 0.00 in Snow Light Snow
6:41 PM 24.8 °F 14.6 °F 21.2 °F 86% 29.78 in 2.0 mi NE 10.4 mph - 0.00 in Snow Light Snow
6:49 PM 24.8 °F 14.6 °F 21.2 °F 86% 29.78 in 1.8 mi NE 10.4 mph - 0.00 in Snow Light Snow
6:52 PM 24.1 °F 14.4 °F 21.0 °F 88% 29.82 in 1.8 mi NE 9.2 mph - 0.00 in Snow Light Snow
7:00 PM 24.8 °F 16.1 °F 21.2 °F 86% 29.78 in 2.0 mi NE 8.1 mph - 0.01 in Snow Light Snow
7:05 PM 24.8 °F 16.1 °F 21.2 °F 86% 29.78 in 1.8 mi NE 8.1 mph - 0.01 in Snow Light Snow
7:28 PM 24.8 °F 16.9 °F 21.2 °F 86% 29.78 in 2.0 mi NNE 6.9 mph - 0.01 in Snow Light Snow
7:52 PM 24.1 °F 16.0 °F 21.0 °F 88% 29.82 in 2.0 mi NNE 6.9 mph - 0.01 in Snow Light Snow
8:08 PM 24.8 °F 16.9 °F 21.2 °F 86% 29.78 in 4.0 mi NNE 6.9 mph - 0.01 in Snow Light Snow
8:40 PM 24.8 °F 19.1 °F 21.2 °F 86% 29.79 in 2.0 mi NNE 4.6 mph - 0.01 in Snow Light Snow
8:52 PM 24.1 °F 19.7 °F 21.0 °F 88% 29.83 in 3.0 mi North 3.5 mph - 0.01 in Snow Light Snow
9:00 PM 24.8 °F 20.5 °F 21.2 °F 86% 29.79 in 5.0 mi North 3.5 mph - 0.00 in Snow Light Snow
9:10 PM 24.8 °F 20.5 °F 21.2 °F 86% 29.79 in 4.0 mi NNW 3.5 mph - 0.00 in Snow Light Snow
9:22 PM 24.8 °F 20.5 °F 21.2 °F 86% 29.80 in 2.0 mi NNW 3.5 mph - 0.00 in Snow Light Snow
9:52 PM 24.1 °F 19.7 °F 19.9 °F 84% 29.85 in 5.0 mi NNW 3.5 mph - 0.00 in Snow Light Snow
10:02 PM 24.8 °F 20.5 °F 19.4 °F 80% 29.81 in 9.0 mi North 3.5 mph - 0.01 in Snow Light Snow
10:45 PM 24.8 °F - 19.4 °F 80% 29.81 in 8.0 mi Calm Calm - 0.01 in   Overcast
10:52 PM 23.0 °F - 19.9 °F 88% 29.86 in 8.0 mi Calm Calm - 0.01 in   Overcast
11:18 PM 23.0 °F 17.0 °F 19.4 °F 86% 29.83 in 8.0 mi WNW 4.6 mph - N/A   Overcast
11:30 PM 23.0 °F 17.0 °F 19.4 °F 86% 29.83 in 10.0 mi NW 4.6 mph - N/A   Overcast
11:43 PM 23.0 °F 18.4 °F 19.4 °F 86% 29.84 in 10.0 mi Variable 3.5 mph - N/A   Overcast
11:52 PM 23.0 °F 17.0 °F 19.0 °F 85% 29.88 in 10.0 mi WNW 4.6 mph - N/A   Overcast